CO-57
1 27848U 03031J 18199.86865524 .00000023 00000-0 30447-4 0 9995
2 27848 98.6946 208.4657 0008554 293.8665 66.1616 14.21726312780567
RS-22
1 27939U 03042A 18199.84812855 .00000072 00000-0 21459-4 0 9992
2 27939 97.9950 338.1719 0014018 52.5594 101.2431 14.66701307791450
NOAA-18
1 28654U 05018A 18199.56002191 -.00000041 +00000-0 +30023-5 0 9990
2 28654 099.1426 235.6479 0015009 043.1909 317.0436 14.12380646678117
CO-58
1 28895U 05043F 18199.86211848 .00000096 00000-0 27304-4 0 9995
2 28895 97.9131 350.0414 0016067 333.7722 26.2666 14.63562939678511
Falconsat-3
1 30776U 07006E 18199.10754596 .00001756 00000-0 52597-4 0 9992
2 30776 35.4363 69.8877 0003777 301.4929 58.5428 15.34651732629079
CO-65
1 32785U 08021C 18199.51590119 +.00000160 +00000-0 +23018-4 0 9990
2 32785 097.5464 210.1979 0011663 298.1439 061.8599 14.88146158553764
AAUSAT2
1 32788U 08021F 18199.62598962 .00000636 00000-0 64094-4 0 9996
2 32788 97.5200 224.8201 0010365 239.1853 120.8348 14.94392769554877
DO-64
1 32789U 08021G 18199.40395030 .00000669 00000-0 49782-4 0 9997
2 32789 97.5098 253.4207 0012392 183.1389 176.9763 15.06161965556489
CO-66
1 32791U 08021J 18199.48625629 +.00000178 +00000-0 +23549-4 0 9996
2 32791 097.5349 215.5984 0011755 275.0896 084.8981 14.90587375554091
RS-30
1 32953U 08025A 18199.83064887 .00000032 00000-0 16073-3 0 9994
2 32953 82.5039 352.9951 0019881 139.3827 220.8740 12.43084373460700
PRISM
1 33493U 09002B 18197.72677445 -.00000067 00000-0 -26685-6 0 9999
2 33493 98.1276 100.9510 0014213 217.7281 142.2982 14.96259108514768
NOAA-19
1 33591U 09005A 18199.52499726 +.00000084 +00000-0 +70682-4 0 9996
2 33591 099.1437 178.1774 0013019 236.8222 123.1701 14.12293707486335
TISAT-1
1 36799U 10035E 18199.32606255 .00000447 00000-0 51409-4 0 9998
2 36799 98.1106 336.3744 0013712 105.3464 254.9269 14.90834920434792
JUGNU
1 37839U 11058B 18199.29099622 +.00000307 +00000-0 +21867-4 0 9990
2 37839 019.9601 208.6432 0018756 229.3708 235.7468 14.12623825349668
SRMSAT
1 37841U 11058D 18199.57487400 +.00000300 +00000-0 +19475-4 0 9994
2 37841 019.9713 256.7747 0011995 114.7981 032.6592 14.10610097349225
AO-71
1 37854U 11061E 18199.18320850 +.00000542 +00000-0 +36436-4 0 9998
2 37854 101.7016 280.0198 0163252 341.6139 017.9214 15.05549622366041
HRBE
1 37855U 11061F 18199.53032734 +.00000479 +00000-0 +32726-4 0 9996
2 37855 101.7149 278.0940 0176169 349.5358 010.2205 15.04538929365897
ALMASAT-1
1 38078U 12006B 18199.85413295 .00034147 40091-5 29349-3 0 9998
2 38078 69.4308 129.0145 0231391 57.9666 2.9702 15.42428282345536
HORYU-2
1 38340U 12025D 18199.53868523 +.00000132 +00000-0 +27459-4 0 9993
2 38340 098.3645 222.3329 0012887 109.3869 250.8733 14.75575608321327
RS-40
1 38735U 12041C 18199.83777372 .00000005 00000-0 -34161-4 0 9991
2 38735 82.4756 76.8866 0015866 244.9344 115.0089 12.42576904270954
BEESAT-3
1 39134U 13015E 18199.59986421 +.00000891 +00000-0 +51518-4 0 9994
2 39134 064.8635 025.2879 0008057 216.3391 143.7190 15.19256000289296
BEESAT-2
1 39136U 13015G 18199.06071107 .00000463 00000-0 33918-4 0 9993
2 39136 64.8694 43.6617 0019404 233.1949 126.7396 15.16211915289271
ZACUBE-1
1 39417U 13066B 18199.53015449 +.00000134 +00000-0 +23201-4 0 9999
2 39417 097.5851 226.4921 0060371 053.5361 307.1395 14.80954134251439
TRITON-1
1 39427U 13066M 18199.86612754 .00000155 00000-0 32497-4 0 9998
2 39427 97.6425 193.6984 0114595 157.1422 203.4944 14.67687607249224
GOMX-1
1 39430U 13066Q 18199.84884302 .00000139 00000-0 34466-4 0 9990
2 39430 97.6995 174.4477 0150258 230.2858 128.5019 14.59098937247777
LO-74
1 39440U 13066AA 18199.53526892 +.00000162 +00000-0 +29454-4 0 9991
2 39440 097.6003 212.9082 0082092 093.6863 267.3739 14.75692525249342
AO-73
1 39444U 13066AE 18199.84717921 .00000214 00000-0 32782-4 0 9990
2 39444 97.5859 228.3574 0059392 47.8781 312.7458 14.81740384250347
SPROUT
1 39770U 14029E 18199.75180971 .00000547 00000-0 67351-4 0 9990
2 39770 97.8786 300.5393 0010581 103.8681 256.3699 14.86899098225054
DUCHIFAT-1
1 40021U 14033M 18199.34603953 .00000263 00000-0 32903-4 0 9991
2 40021 97.9150 118.1212 0014513 76.9030 283.3807 14.90339712221594
NANOSATCBR1
1 40024U 14033Q 18199.33540044 .00000266 00000-0 33812-4 0 9997
2 40024 97.9082 116.2918 0013768 79.1223 281.1543 14.89598490221516
EO-79
1 40025U 14033R 18199.80458427 .00000185 00000-0 25754-4 0 9999
2 40025 97.9038 115.1376 0013998 81.9089 278.3715 14.88738908221495
DTUSAT-2
1 40030U 14033W 18199.71068594 .00000213 00000-0 29071-4 0 9995
2 40030 97.8983 113.6988 0013459 77.6797 282.5925 14.88345529221427
EO-80
1 40032U 14033Y 18199.23207892 +.00000216 +00000-0 +29431-4 0 9993
2 40032 097.8991 113.2243 0013410 079.6862 280.5866 14.88283042220826
ANTELSAT
1 40034U 14033AA 18199.56810687 +.00000152 +00000-0 +29953-4 0 9991
2 40034 097.8070 075.0508 0060344 096.7202 264.0879 14.73943172218774
VELOX-1
1 40057U 14034E 18199.80115073 .00000219 00000-0 38330-4 0 9994
2 40057 98.2068 311.3992 0010064 221.5398 138.5054 14.77452224218319
DAURIA DX 1
1 40071U 14037C 18199.83224043 .00000079 00000-0 17563-4 0 9993
2 40071 98.3804 332.6127 0007700 213.4633 146.6094 14.81172640217684
UKUBE-1
1 40074U 14037F 18199.84577509 .00000178 00000-0 28657-4 0 9991
2 40074 98.3895 338.7078 0003865 203.6447 156.4619 14.83825606217996
HODOYOSHI-1
1 40299U 14070B 18199.73711911 .00000636 00000-0 30013-4 0 9990
2 40299 97.3775 280.9537 0014018 134.5130 342.2639 15.22948890205283
CHUBUSAT-1
1 40300U 14070C 18199.79850326 .00000661 00000-0 32170-4 0 9997
2 40300 97.3620 276.8178 0020647 147.7288 0.9048 15.21624072205087
QSAT-EOS
1 40301U 14070D 18199.82856882 .00001609 00000-0 66993-4 0 9998
2 40301 97.3585 278.2710 0027534 138.1979 1.1500 15.24862562205244
FIREBIRD FU3
1 40377U 15003B 18199.70954022 .00001520 00000-0 65368-4 0 9997
2 40377 99.0839 107.7047 0131823 125.5370 235.8235 15.17327317191105
FIREBIRD FU4
1 40378U 15003C 18199.69820385 .00001498 00000-0 64437-4 0 9990
2 40378 99.0841 107.7503 0132034 125.4682 235.8953 15.17336340191109
GRIFEX
1 40379U 15003D 18199.79341100 .00001011 00000-0 48057-4 0 9996
2 40379 99.0865 103.8513 0138868 138.2179 222.9751 15.14415658190882
NO-84
1 40654U 15025D 18199.31228968 +.00007751 +00000-0 +12639-3 0 03560
2 40654 054.9933 255.6377 0155661 187.3611 172.5161 15.41268839060646
NO-83
1 40655U 15025E 18199.30987172 +.00013604 +00000-0 +14170-3 0 04139
2 40655 054.9747 195.0499 0101349 223.2488 136.0696 15.58730574061139
DEORBITSAIL
1 40719U 15032E 18199.69780731 .00000302 00000-0 50655-4 0 9991
2 40719 97.9416 92.6969 0015431 310.8693 49.1179 14.76468026162828
NUDT-PHONESAT
1 40900U 15049B 18199.80958394 .00001643 00000-0 76141-4 0 9993
2 40900 97.4406 207.6981 0011604 280.4030 79.5898 15.21454080156724
XW-2A
1 40903U 15049E 18199.80908325 .00001510 00000-0 39129-4 0 9993
2 40903 97.3818 234.9769 0012320 277.1865 82.7981 15.40621592158675
XW-2C
1 40906U 15049H 18199.81885754 .00000479 00000-0 28947-4 0 9996
2 40906 97.4599 202.7314 0013345 281.9171 78.0565 15.15239181156287
